Location: Antioch Baptist Church
(32.6696°N, 85.7327°W)
Time: 20:52:08
(UTC+00:00)

Cosmos 2154 Rocket - Pass Details

Date: 14 July 2020
Orbit: 967 x 995 km, 82.9° (Epoch: 13 August)

Event Time Altitude Azimuth Distance (km) Brightness Sun altitude
Exits shadow 02:40:49 33° 124° (ESE) 1,561 4.5 -19.6°
Maximum altitude 02:42:29 39° 89° (E) 1,405 4.5 -19.8°
Drops below altitude 10° 02:48:11 10° 23° (NNE) 2,719 6.6 -20.7°
Sets 02:50:51 0° 16° (NNE) 3,674 7.4 -21.1°
